When you browse on this site, cookies collect data to enhance your experience and personalize the content and advertising you see.
Visit our Privacy Policy to learn more. By continuing to use the site, you agree to this use of cookies and data.
  • In Hungary
  • List of Countries
  • For 7 days
  • Water Temperature
  • Satellite Maps
  • Weather Map
  • News
  • Weather Widgets
  • user-avatar
    Login

    Hourly Weather Lubien

    Today, 19 June, Wednesday

    Time Temperature Precipitation Wind Pressure Humidity
    00:00 +18°C° 0 mm 1 mps 728 mmHg 94%
    01:00 +18°C° 0 mm 1 mps 728 mmHg 94%
    02:00 +16°C° 0 mm 1 mps 727 mmHg 93%
    03:00 +16°C° 0 mm 1 mps 727 mmHg 93%
    04:00 +16°C° 0 mm 1 mps 727 mmHg 92%
    05:00 +19°C° 0 mm 1 mps 727 mmHg 89%
    06:00 +20°C° 0 mm 1 mps 727 mmHg 85%
    07:00 +22°C° 0 mm 1 mps 728 mmHg 79%
    08:00 +24°C° 0.1 mm 1 mps 727 mmHg 70%
    09:00 +26°C° 0.1 mm 1 mps 727 mmHg 62%
    10:00 +26°C° 0.1 mm 0 mps 727 mmHg 53%
    11:00 +28°C° 0.2 mm 1 mps 727 mmHg 53%
    12:00 +28°C° 0.2 mm 1 mps 727 mmHg 54%
    13:00 +28°C° 0 mm 1 mps 727 mmHg 54%
    14:00 +28°C° 0.7 mm 1 mps 726 mmHg 59%
    15:00 +27°C° 0.7 mm 1 mps 726 mmHg 64%
    16:00 +27°C° 0.7 mm 1 mps 725 mmHg 69%
    17:00 +24°C° 0.5 mm 0 mps 725 mmHg 73%
    18:00 +22°C° 0.5 mm 0 mps 725 mmHg 77%
    19:00 +21°C° 0.5 mm 0 mps 725 mmHg 81%
    20:00 +22°C° 0.1 mm 1 mps 725 mmHg 82%
    21:00 +21°C° 0.1 mm 1 mps 725 mmHg 83%
    22:00 +21°C° 0.1 mm 1 mps 725 mmHg 84%
    23:00 +20°C° 0.1 mm 1 mps 725 mmHg 85%

    Tomorrow, 20 June, Thursday

    Time Temperature Precipitation Wind Pressure Humidity
    00:00 +19°C° 0.1 mm 1 mps 725 mmHg 86%
    01:00 +19°C° 0.1 mm 1 mps 725 mmHg 87%
    02:00 +19°C° 0 mm 1 mps 725 mmHg 87%
    03:00 +18°C° 0 mm 1 mps 725 mmHg 87%
    04:00 +18°C° 0 mm 1 mps 725 mmHg 87%
    05:00 +20°C° 0 mm 1 mps 725 mmHg 82%
    06:00 +22°C° 0 mm 1 mps 725 mmHg 77%
    07:00 +24°C° 0 mm 1 mps 725 mmHg 72%
    08:00 +25°C° 0.3 mm 1 mps 725 mmHg 68%
    09:00 +26°C° 0.3 mm 1 mps 726 mmHg 65%
    10:00 +28°C° 0.3 mm 1 mps 726 mmHg 61%
    11:00 +28°C° 0.9 mm 1 mps 726 mmHg 62%
    12:00 +26°C° 0.9 mm 0 mps 725 mmHg 63%
    13:00 +25°C° 0.9 mm 0 mps 725 mmHg 65%
    14:00 +25°C° 0.2 mm 0 mps 725 mmHg 67%
    15:00 +25°C° 0.2 mm 0 mps 725 mmHg 70%
    16:00 +24°C° 0.2 mm 0 mps 725 mmHg 72%
    17:00 +23°C° 0.2 mm 0 mps 725 mmHg 76%
    18:00 +24°C° 0.2 mm 1 mps 725 mmHg 80%
    19:00 +23°C° 0.2 mm 1 mps 725 mmHg 84%
    20:00 +22°C° 0 mm 1 mps 725 mmHg 84%
    21:00 +21°C° 0 mm 1 mps 725 mmHg 85%
    22:00 +20°C° 0 mm 1 mps 725 mmHg 86%
    23:00 +20°C° 0.2 mm 1 mps 725 mmHg 87%

    Day after tomorrow, 21 June, Friday

    Time Temperature Precipitation Wind Pressure Humidity
    00:00 +19°C° 0.2 mm 1 mps 725 mmHg 88%
    01:00 +19°C° 0.2 mm 1 mps 725 mmHg 89%
    02:00 +19°C° 0.3 mm 1 mps 725 mmHg 90%
    03:00 +18°C° 0.3 mm 1 mps 726 mmHg 91%
    04:00 +18°C° 0.3 mm 1 mps 726 mmHg 92%
    05:00 +19°C° 0.4 mm 1 mps 726 mmHg 91%
    06:00 +20°C° 0.4 mm 1 mps 726 mmHg 90%
    07:00 +21°C° 0.4 mm 1 mps 727 mmHg 89%
    08:00 +22°C° 0.7 mm 1 mps 727 mmHg 86%
    09:00 +23°C° 0.7 mm 2 mps 727 mmHg 83%
    10:00 +24°C° 0.7 mm 2 mps 727 mmHg 79%
    11:00 +25°C° 1.1 mm 2 mps 727 mmHg 78%
    12:00 +25°C° 1.1 mm 2 mps 727 mmHg 76%
    13:00 +26°C° 1.1 mm 2 mps 727 mmHg 74%
    14:00 +25°C° 1.6 mm 2 mps 727 mmHg 78%
    15:00 +25°C° 1.6 mm 2 mps 727 mmHg 82%
    16:00 +24°C° 1.6 mm 2 mps 727 mmHg 86%
    17:00 +23°C° 0.4 mm 1 mps 727 mmHg 89%
    18:00 +22°C° 0.4 mm 1 mps 727 mmHg 91%
    19:00 +21°C° 0.4 mm 1 mps 727 mmHg 94%
    20:00 +21°C° 0.1 mm 1 mps 727 mmHg 94%
    21:00 +20°C° 0.1 mm 1 mps 728 mmHg 95%
    22:00 +19°C° 0.1 mm 1 mps 728 mmHg 95%
    23:00 +19°C° 0.1 mm 1 mps 728 mmHg 95%

    22 June, Saturday

    Time Temperature Precipitation Wind Pressure Humidity
    00:00 +19°C° 0.1 mm 1 mps 728 mmHg 95%
    01:00 +16°C° 0.1 mm 0 mps 728 mmHg 94%
    02:00 +18°C° 0.2 mm 1 mps 728 mmHg 95%
    03:00 +18°C° 0.2 mm 1 mps 728 mmHg 96%
    04:00 +18°C° 0.2 mm 1 mps 728 mmHg 96%
    05:00 +19°C° 0.2 mm 1 mps 729 mmHg 96%
    06:00 +19°C° 0.2 mm 1 mps 729 mmHg 95%
    07:00 +20°C° 0.2 mm 1 mps 729 mmHg 94%
    08:00 +21°C° 0.5 mm 1 mps 729 mmHg 93%
    09:00 +20°C° 0.5 mm 2 mps 729 mmHg 92%
    10:00 +21°C° 0.5 mm 2 mps 729 mmHg 92%
    11:00 +21°C° 1.1 mm 2 mps 729 mmHg 90%
    12:00 +21°C° 1.1 mm 3 mps 729 mmHg 89%
    13:00 +22°C° 1.1 mm 3 mps 729 mmHg 88%
    14:00 +22°C° 1.2 mm 3 mps 729 mmHg 88%
    15:00 +22°C° 1.2 mm 3 mps 728 mmHg 89%
    16:00 +22°C° 1.2 mm 3 mps 728 mmHg 89%
    17:00 +21°C° 0.7 mm 3 mps 728 mmHg 91%
    18:00 +20°C° 0.7 mm 2 mps 728 mmHg 92%
    19:00 +20°C° 0.7 mm 2 mps 728 mmHg 94%
    20:00 +19°C° 0.3 mm 2 mps 728 mmHg 95%
    21:00 +19°C° 0.3 mm 2 mps 728 mmHg 95%
    22:00 +18°C° 0.3 mm 2 mps 728 mmHg 96%
    23:00 +18°C° 0.1 mm 2 mps 728 mmHg 96%

    23 June, Sunday

    Time Temperature Precipitation Wind Pressure Humidity
    00:00 +18°C° 0.1 mm 2 mps 728 mmHg 97%
    01:00 +18°C° 0.1 mm 2 mps 728 mmHg 97%
    02:00 +18°C° 0.1 mm 2 mps 728 mmHg 97%
    03:00 +17°C° 0.1 mm 2 mps 728 mmHg 97%
    04:00 +17°C° 0.1 mm 2 mps 728 mmHg 97%
    05:00 +17°C° 0.2 mm 2 mps 728 mmHg 97%
    06:00 +17°C° 0.2 mm 2 mps 728 mmHg 97%
    07:00 +17°C° 0.2 mm 2 mps 728 mmHg 97%
    08:00 +17°C° 0.2 mm 2 mps 729 mmHg 96%
    09:00 +17°C° 0.2 mm 2 mps 729 mmHg 96%
    10:00 +17°C° 0.2 mm 2 mps 729 mmHg 95%
    11:00 +17°C° 0.1 mm 2 mps 729 mmHg 95%
    12:00 +19°C° 0.1 mm 1 mps 729 mmHg 95%
    13:00 +19°C° 0.1 mm 1 mps 729 mmHg 95%
    14:00 +19°C° 0.1 mm 1 mps 729 mmHg 96%
    15:00 +19°C° 0.1 mm 1 mps 729 mmHg 96%
    16:00 +19°C° 0.1 mm 1 mps 729 mmHg 96%
    17:00 +19°C° 0.2 mm 1 mps 730 mmHg 97%
    18:00 +19°C° 0.2 mm 1 mps 730 mmHg 97%
    19:00 +19°C° 0.2 mm 1 mps 730 mmHg 97%
    20:00 +18°C° 0.2 mm 1 mps 730 mmHg 97%
    21:00 +18°C° 0.2 mm 1 mps 730 mmHg 97%
    22:00 +18°C° 0.2 mm 1 mps 731 mmHg 97%
    23:00 +16°C° 0.4 mm 1 mps 731 mmHg 98%

    24 June, Monday

    Time Temperature Precipitation Wind Pressure Humidity
    00:00 +16°C° 0.4 mm 1 mps 731 mmHg 98%
    01:00 +16°C° 0.4 mm 1 mps 731 mmHg 98%
    02:00 +16°C° 0.1 mm 1 mps 731 mmHg 98%
    03:00 +16°C° 0.1 mm 1 mps 731 mmHg 98%
    04:00 +16°C° 0.1 mm 1 mps 731 mmHg 98%
    05:00 +16°C° 0.2 mm 1 mps 731 mmHg 98%
    06:00 +18°C° 0.2 mm 1 mps 732 mmHg 98%
    07:00 +18°C° 0.2 mm 1 mps 732 mmHg 98%
    08:00 +18°C° 0.2 mm 1 mps 732 mmHg 97%
    09:00 +18°C° 0.2 mm 1 mps 732 mmHg 97%
    10:00 +18°C° 0.2 mm 1 mps 732 mmHg 97%
    11:00 +19°C° 0 mm 1 mps 732 mmHg 96%
    12:00 +19°C° 0 mm 1 mps 732 mmHg 95%
    13:00 +20°C° 0 mm 1 mps 732 mmHg 93%
    14:00 +20°C° 0 mm 1 mps 732 mmHg 92%
    15:00 +21°C° 0 mm 1 mps 732 mmHg 91%
    16:00 +21°C° 0 mm 1 mps 733 mmHg 90%
    17:00 +21°C° 0.1 mm 1 mps 733 mmHg 92%
    18:00 +21°C° 0.1 mm 1 mps 733 mmHg 93%
    19:00 +20°C° 0.1 mm 1 mps 733 mmHg 95%
    20:00 +20°C° 0 mm 1 mps 733 mmHg 95%
    21:00 +19°C° 0 mm 1 mps 733 mmHg 96%
    22:00 +16°C° 0 mm 0 mps 734 mmHg 96%
    23:00 +16°C° 0 mm 0 mps 734 mmHg 96%
    Show more